Time,TemperatureF,DewpointF,PressureIn,WindDirection,WindDirectionDegrees,WindSpeedMPH,WindSpeedGustMPH,Humidity,HourlyPrecipIn,Conditions,Clouds,dailyrainin,SoftwareType,DateUTC
2013-02-19 00:03:00,29.6,15.0,30.14,ENE,64,13.0,21.0,54,0.00,,,0.00,weatherlink.com 1.10,2013-02-19 05:03:00,
2013-02-19 00:18:00,29.6,16.0,30.15,North,8,11.0,18.0,57,0.00,,,0.00,weatherlink.com 1.10,2013-02-19 05:18:00,
2013-02-19 00:33:00,29.6,17.0,30.15,ENE,77,12.0,15.0,60,0.00,,,0.00,weatherlink.com 1.10,2013-02-19 05:33:00,
2013-02-19 00:48:00,29.5,17.0,30.14,ESE,103,7.0,16.0,60,0.00,,,0.00,weatherlink.com 1.10,2013-02-19 05:48:00,
2013-02-19 01:03:00,29.4,15.0,30.14,East,86,13.0,18.0,56,0.00,,,0.00,weatherlink.com 1.10,2013-02-19 06:03:00,
2013-02-19 01:18:00,29.6,16.0,30.14,ENE,73,10.0,18.0,58,0.00,,,0.00,weatherlink.com 1.10,2013-02-19 06:18:00,
2013-02-19 01:33:00,29.7,16.0,30.14,NE,44,11.0,21.0,58,0.00,,,0.00,weatherlink.com 1.10,2013-02-19 06:33:00,
2013-02-19 01:48:00,29.8,17.0,30.14,ENE,59,17.0,19.0,60,0.00,,,0.00,weatherlink.com 1.10,2013-02-19 06:48:00,
2013-02-19 02:03:00,29.9,17.0,30.14,NE,44,14.0,19.0,60,0.00,,,0.00,weatherlink.com 1.10,2013-02-19 07:03:00,
2013-02-19 02:18:00,30.0,17.0,30.15,ENE,71,12.0,22.0,58,0.00,,,0.00,weatherlink.com 1.10,2013-02-19 07:18:00,
2013-02-19 02:34:00,30.0,17.0,30.15,East,84,18.0,19.0,59,0.00,,,0.00,weatherlink.com 1.10,2013-02-19 07:34:00,
2013-02-19 02:48:00,30.2,16.0,30.15,NNE,23,9.0,18.0,57,0.00,,,0.00,weatherlink.com 1.10,2013-02-19 07:48:00,
2013-02-19 03:03:00,30.2,18.0,30.15,NNE,18,4.0,14.0,61,0.00,,,0.00,weatherlink.com 1.10,2013-02-19 08:03:00,
2013-02-19 03:18:00,30.5,19.0,30.15,ENE,78,11.0,16.0,63,0.00,,,0.00,weatherlink.com 1.10,2013-02-19 08:18:00,
2013-02-19 03:33:00,30.7,18.0,30.15,NE,46,6.0,17.0,59,0.00,,,0.00,weatherlink.com 1.10,2013-02-19 08:33:00,
2013-02-19 03:48:00,30.5,18.0,30.15,NE,48,10.0,15.0,61,0.00,,,0.00,weatherlink.com 1.10,2013-02-19 08:48:00,
2013-02-19 04:03:00,30.6,20.0,30.15,ENE,60,8.0,13.0,64,0.00,,,0.00,weatherlink.com 1.10,2013-02-19 09:03:00,
2013-02-19 04:18:00,30.8,19.0,30.15,NE,53,6.0,12.0,62,0.00,,,0.00,weatherlink.com 1.10,2013-02-19 09:18:00,
2013-02-19 04:33:00,31.1,20.0,30.14,ENE,69,6.0,14.0,63,0.00,,,0.00,weatherlink.com 1.10,2013-02-19 09:33:00,
2013-02-19 04:48:00,31.3,21.0,30.15,ESE,106,5.0,11.0,65,0.00,,,0.00,weatherlink.com 1.10,2013-02-19 09:48:00,
2013-02-19 05:03:00,31.5,21.0,30.15,East,94,6.0,13.0,66,0.00,,,0.00,weatherlink.com 1.10,2013-02-19 10:03:00,
2013-02-19 05:18:00,31.5,22.0,30.15,East,87,2.0,9.0,68,0.00,,,0.00,weatherlink.com 1.10,2013-02-19 10:18:00,
2013-02-19 05:33:00,31.5,21.0,30.14,ESE,102,2.0,7.0,65,0.00,,,0.00,weatherlink.com 1.10,2013-02-19 10:33:00,
2013-02-19 05:48:00,31.1,22.0,30.14,ENE,70,3.0,5.0,70,0.00,,,0.00,weatherlink.com 1.10,2013-02-19 10:48:00,
2013-02-19 06:03:00,31.2,24.0,30.13,ENE,67,5.0,6.0,74,0.00,,,0.00,weatherlink.com 1.10,2013-02-19 11:03:00,
2013-02-19 06:18:00,31.6,24.0,30.13,East,79,10.0,11.0,74,0.00,,,0.00,weatherlink.com 1.10,2013-02-19 11:18:00,
2013-02-19 06:33:00,31.9,25.0,30.14,ENE,60,11.0,13.0,74,0.00,,,0.00,weatherlink.com 1.10,2013-02-19 11:33:00,
2013-02-19 06:48:00,31.9,24.0,30.14,ENE,70,7.0,13.0,73,0.00,,,0.00,weatherlink.com 1.10,2013-02-19 11:48:00,
2013-02-19 07:03:00,31.7,24.0,30.14,ENE,77,8.0,8.0,74,0.00,,,0.00,weatherlink.com 1.10,2013-02-19 12:03:00,
2013-02-19 07:18:00,32.1,25.0,30.14,ENE,60,4.0,8.0,74,0.00,,,0.00,weatherlink.com 1.10,2013-02-19 12:18:00,
2013-02-19 07:33:00,33.0,26.0,30.14,ENE,60,8.0,10.0,75,0.00,,,0.00,weatherlink.com 1.10,2013-02-19 12:33:00,
2013-02-19 07:49:00,33.8,27.0,30.13,East,81,6.0,8.0,75,0.00,,,0.00,weatherlink.com 1.10,2013-02-19 12:49:00,
2013-02-19 08:04:00,34.3,27.0,30.13,ENE,68,5.0,9.0,75,0.00,,,0.00,weatherlink.com 1.10,2013-02-19 13:04:00,
2013-02-19 08:19:00,34.3,28.0,30.12,ENE,73,4.0,6.0,77,0.00,,,0.00,weatherlink.com 1.10,2013-02-19 13:19:00,
2013-02-19 08:34:00,34.5,27.0,30.12,ENE,61,4.0,6.0,74,0.00,,,0.00,weatherlink.com 1.10,2013-02-19 13:34:00,
2013-02-19 08:49:00,35.0,27.0,30.12,ENE,77,4.0,5.0,72,0.00,,,0.00,weatherlink.com 1.10,2013-02-19 13:49:00,
2013-02-19 09:04:00,35.4,25.0,30.12,ENE,75,4.0,7.0,67,0.00,,,0.00,weatherlink.com 1.10,2013-02-19 14:04:00,
2013-02-19 09:19:00,36.9,24.0,30.12,ENE,71,8.0,8.0,60,0.00,,,0.00,weatherlink.com 1.10,2013-02-19 14:19:00,
2013-02-19 09:34:00,38.0,24.0,30.11,ENE,64,7.0,9.0,57,0.00,,,0.00,weatherlink.com 1.10,2013-02-19 14:34:00,
2013-02-19 09:49:00,39.5,26.0,30.11,West,280,2.0,10.0,58,0.00,,,0.00,weatherlink.com 1.10,2013-02-19 14:49:00,
2013-02-19 10:04:00,39.5,27.0,30.11,East,88,6.0,11.0,62,0.00,,,0.00,weatherlink.com 1.10,2013-02-19 15:04:00,
2013-02-19 10:19:00,40.3,28.0,30.11,NE,46,5.0,11.0,63,0.00,,,0.00,weatherlink.com 1.10,2013-02-19 15:19:00,
2013-02-19 10:34:00,41.4,29.0,30.10,East,92,6.0,12.0,62,0.00,,,0.00,weatherlink.com 1.10,2013-02-19 15:34:00,
2013-02-19 10:49:00,41.4,30.0,30.11,ENE,60,8.0,12.0,65,0.00,,,0.00,weatherlink.com 1.10,2013-02-19 15:49:00,
2013-02-19 11:04:00,42.0,32.0,30.10,NE,52,8.0,14.0,67,0.00,,,0.00,weatherlink.com 1.10,2013-02-19 16:04:00,
2013-02-19 11:19:00,43.1,32.0,30.09,NNE,16,11.0,15.0,66,0.00,,,0.00,weatherlink.com 1.10,2013-02-19 16:19:00,
2013-02-19 11:34:00,43.2,33.0,30.09,NNE,29,7.0,17.0,68,0.00,,,0.00,weatherlink.com 1.10,2013-02-19 16:34:00,
2013-02-19 11:49:00,43.5,33.0,30.08,ENE,67,3.0,12.0,67,0.00,,,0.00,weatherlink.com 1.10,2013-02-19 16:49:00,
2013-02-19 12:04:00,43.4,33.0,30.07,West,260,5.0,16.0,68,0.00,,,0.00,weatherlink.com 1.10,2013-02-19 17:04:00,
2013-02-19 12:19:00,43.8,34.0,30.06,NW,318,4.0,16.0,69,0.00,,,0.00,weatherlink.com 1.10,2013-02-19 17:19:00,
2013-02-19 12:34:00,44.5,34.0,30.04,ENE,67,5.0,14.0,67,0.00,,,0.00,weatherlink.com 1.10,2013-02-19 17:34:00,
2013-02-19 12:49:00,45.1,35.0,30.04,NNE,33,10.0,14.0,68,0.00,,,0.00,weatherlink.com 1.10,2013-02-19 17:49:00,
2013-02-19 13:05:00,45.3,35.0,30.04,NE,51,17.0,17.0,68,0.00,,,0.00,weatherlink.com 1.10,2013-02-19 18:05:00,
2013-02-19 13:20:00,45.4,35.0,30.03,East,86,4.0,14.0,68,0.00,,,0.00,weatherlink.com 1.10,2013-02-19 18:20:00,
2013-02-19 13:35:00,46.8,36.0,30.02,NNE,22,3.0,9.0,66,0.00,,,0.00,weatherlink.com 1.10,2013-02-19 18:35:00,
2013-02-19 13:50:00,46.7,36.0,30.00,ESE,120,4.0,8.0,66,0.00,,,0.00,weatherlink.com 1.10,2013-02-19 18:50:00,
2013-02-19 14:05:00,47.0,36.0,29.99,NNE,29,3.0,12.0,66,0.00,,,0.00,weatherlink.com 1.10,2013-02-19 19:05:00,
2013-02-19 14:20:00,46.2,36.0,29.99,NE,41,4.0,10.0,68,0.00,,,0.00,weatherlink.com 1.10,2013-02-19 19:20:00,
2013-02-19 14:35:00,45.8,37.0,29.99,North,357,3.0,7.0,70,0.00,,,0.00,weatherlink.com 1.10,2013-02-19 19:35:00,
2013-02-19 14:50:00,45.7,36.0,29.98,NE,42,2.0,8.0,70,0.00,,,0.00,weatherlink.com 1.10,2013-02-19 19:50:00,
2013-02-19 15:05:00,45.1,37.0,29.97,ENE,68,4.0,7.0,73,0.00,,,0.00,weatherlink.com 1.10,2013-02-19 20:05:00,
2013-02-19 15:20:00,44.5,37.0,29.96,WNW,288,5.0,7.0,76,0.00,,,0.00,weatherlink.com 1.10,2013-02-19 20:20:00,
2013-02-19 15:35:00,44.1,37.0,29.95,East,99,3.0,6.0,77,0.00,,,0.00,weatherlink.com 1.10,2013-02-19 20:35:00,
2013-02-19 15:50:00,43.8,38.0,29.94,WNW,298,2.0,8.0,80,0.00,,,0.00,weatherlink.com 1.10,2013-02-19 20:50:00,
2013-02-19 16:05:00,43.7,39.0,29.93,SE,124,4.0,9.0,82,0.00,,,0.00,weatherlink.com 1.10,2013-02-19 21:05:00,
2013-02-19 16:20:00,43.6,39.0,29.93,West,278,2.0,8.0,84,0.00,,,0.00,weatherlink.com 1.10,2013-02-19 21:20:00,
2013-02-19 16:35:00,43.5,39.0,29.92,WSW,243,2.0,7.0,84,0.00,,,0.00,weatherlink.com 1.10,2013-02-19 21:35:00,
2013-02-19 16:50:00,43.6,39.0,29.91,WSW,249,2.0,6.0,85,0.00,,,0.00,weatherlink.com 1.10,2013-02-19 21:50:00,
2013-02-19 17:05:00,43.7,40.0,29.90,SE,125,3.0,7.0,85,0.00,,,0.00,weatherlink.com 1.10,2013-02-19 22:05:00,
2013-02-19 17:20:00,43.7,40.0,29.89,SE,125,2.0,8.0,86,0.00,,,0.00,weatherlink.com 1.10,2013-02-19 22:20:00,
2013-02-19 17:35:00,43.7,40.0,29.89,South,169,2.0,7.0,87,0.00,,,0.00,weatherlink.com 1.10,2013-02-19 22:35:00,
2013-02-19 17:50:00,44.0,40.0,29.88,East,94,2.0,7.0,87,0.00,,,0.00,weatherlink.com 1.10,2013-02-19 22:50:00,
2013-02-19 18:05:00,44.3,41.0,29.87,SE,125,2.0,6.0,87,0.00,,,0.00,weatherlink.com 1.10,2013-02-19 23:05:00,
2013-02-19 18:21:00,44.2,41.0,29.85,West,266,1.0,7.0,88,0.00,,,0.00,weatherlink.com 1.10,2013-02-19 23:21:00,
2013-02-19 18:36:00,44.2,41.0,29.83,SE,144,3.0,9.0,89,0.00,,,0.00,weatherlink.com 1.10,2013-02-19 23:36:00,
2013-02-19 18:51:00,44.4,42.0,29.81,ESE,106,6.0,15.0,90,0.00,,,0.00,weatherlink.com 1.10,2013-02-19 23:51:00,
2013-02-19 19:06:00,44.7,42.0,29.80,South,187,4.0,11.0,89,0.00,,,0.00,weatherlink.com 1.10,2013-02-20 00:06:00,
2013-02-19 19:21:00,44.9,42.0,29.79,ENE,70,5.0,15.0,89,0.00,,,0.00,weatherlink.com 1.10,2013-02-20 00:21:00,
2013-02-19 19:36:00,45.4,42.0,29.77,SW,222,7.0,11.0,89,0.00,,,0.00,weatherlink.com 1.10,2013-02-20 00:36:00,
2013-02-19 19:51:00,45.8,43.0,29.76,North,356,6.0,13.0,88,0.00,,,0.00,weatherlink.com 1.10,2013-02-20 00:51:00,
2013-02-19 20:06:00,46.2,43.0,29.75,ENE,63,4.0,16.0,88,0.01,,,0.01,weatherlink.com 1.10,2013-02-20 01:06:00,
2013-02-19 20:21:00,45.5,43.0,29.74,South,173,5.0,18.0,91,0.02,,,0.02,weatherlink.com 1.10,2013-02-20 01:21:00,
2013-02-19 20:36:00,45.5,44.0,29.72,SSW,195,12.0,13.0,93,0.04,,,0.04,weatherlink.com 1.10,2013-02-20 01:36:00,
2013-02-19 20:51:00,45.6,44.0,29.71,SE,135,5.0,19.0,93,0.06,,,0.06,weatherlink.com 1.10,2013-02-20 01:51:00,
2013-02-19 21:06:00,45.7,44.0,29.68,SSE,159,4.0,14.0,94,0.07,,,0.08,weatherlink.com 1.10,2013-02-20 02:06:00,
2013-02-19 21:21:00,45.6,44.0,29.68,SSE,156,6.0,17.0,94,0.09,,,0.11,weatherlink.com 1.10,2013-02-20 02:21:00,
2013-02-19 21:36:00,45.6,44.0,29.65,SW,217,4.0,15.0,95,0.13,,,0.17,weatherlink.com 1.10,2013-02-20 02:36:00,
2013-02-19 21:51:00,45.9,45.0,29.68,ENE,66,20.0,23.0,96,0.15,,,0.21,weatherlink.com 1.10,2013-02-20 02:51:00,
2013-02-19 22:06:00,44.8,44.0,29.66,North,359,20.0,29.0,96,0.28,,,0.36,weatherlink.com 1.10,2013-02-20 03:06:00,
2013-02-19 22:21:00,45.2,44.0,29.65,SW,221,7.0,29.0,96,0.42,,,0.53,weatherlink.com 1.10,2013-02-20 03:21:00,
2013-02-19 22:36:00,46.0,45.0,29.64,NE,51,2.0,18.0,97,0.45,,,0.62,weatherlink.com 1.10,2013-02-20 03:36:00,
2013-02-19 22:51:00,46.1,45.0,29.62,NW,322,3.0,21.0,97,0.56,,,0.77,weatherlink.com 1.10,2013-02-20 03:51:00,
2013-02-19 23:06:00,45.3,45.0,29.62,NNE,23,3.0,9.0,97,0.45,,,0.82,weatherlink.com 1.10,2013-02-20 04:06:00,
2013-02-19 23:21:00,44.2,43.0,29.61,NE,45,14.0,20.0,97,0.32,,,0.85,weatherlink.com 1.10,2013-02-20 04:21:00,
2013-02-19 23:36:00,43.3,43.0,29.60,NNE,27,13.0,17.0,97,0.28,,,0.91,weatherlink.com 1.10,2013-02-20 04:36:00,
2013-02-19 23:51:00,43.1,42.0,29.59,NE,54,13.0,15.0,97,0.15,,,0.92,weatherlink.com 1.10,2013-02-20 04:51:00,